Flag for Australia Weather past 2 weeks in Melbourne, Victoria, Australia

Now
50 °F

Passing clouds.


Feels Like: 45 °F
Forecast: 49 / 60 °F
Wind: 14 mph from South

Location: Melbourne Airport

Current Time: Apr 19, 2015 at 11:06:49 PM

Latest Report: Apr 19, 2015 at 10:30 PM


Visibility: N/A

Pressure: 30.54 "Hg

Humidity: 50%

Dew point: 32 °F

Location of MelbourneLocation

Historic Weather in Melbourne — Graph

°F

Melbourne temperature yesterday

Maximum temperature yesterday: 70 °F (at 3:00 PM)
Minimum temperature yesterday: 50 °F (at 8:30 PM)
Average temperature yesterday: 58 °F

Past Weeks' High & Low Weather Summary

 TemperatureHumidityPressure
High81 °F (Apr 15, 2:30 PM)100% (Apr 7, 2:00 PM)30.54 "Hg (Apr 7, 2:00 PM)
Low43 °F (Apr 13, 2:00 AM)31% (Apr 11, 2:30 PM)29.68 "Hg (Apr 6, 1:30 PM)
Average58 °F72%30.10 "Hg
* Reported Apr 4 11:00 PM — Apr 19 10:00 PM, Melbourne, Weather by CustomWeather, © 2015

Note: Actual official high and low records may vary slightly from our data, if they occured in-between our weather recording intervals... More about our weather records

Advertising

Melbourne weather history for previous 24 hours

 ConditionsComfort  
Time TempWeatherWind HumidityBarometerVisibility
10:00 PM
Sun, Apr 19
52 °FPassing clouds.15 mph50%30.54 "HgN/A
9:00 PM50 °FPassing clouds.12 mph47%30.54 "HgN/A
8:30 PM50 °FPassing clouds.14 mph50%30.51 "HgN/A
8:00 PM48 °FPassing clouds.8 mph76%30.51 "HgN/A
7:00 PM50 °FPartly cloudy.12 mph67%30.48 "HgN/A
6:30 PM50 °FScattered showers. Passing clouds.8 mph67%30.48 "HgN/A
6:00 PM50 °FPassing clouds.13 mph62%30.45 "HgN/A
5:30 PM50 °FPassing clouds.8 mph71%30.45 "HgN/A
5:02 PM52 °FScattered showers. Passing clouds.17 mph58%30.45 "HgN/A
4:30 PM52 °FScattered showers. Partly sunny.17 mph67%30.42 "HgN/A
4:00 PM54 °FSprinkles. Scattered clouds.16 mph63%30.42 "HgN/A
3:30 PM52 °FScattered clouds.17 mph62%30.42 "HgN/A
3:00 PM54 °FBroken clouds.29 mph58%30.42 "HgN/A
2:30 PM52 °FScattered showers. Broken clouds.25 mph67%30.39 "HgN/A
2:00 PM55 °FPartly sunny.22 mph47%30.39 "HgN/A
1:30 PM55 °FScattered clouds.23 mph51%30.36 "HgN/A
1:00 PM54 °FScattered clouds.16 mph58%30.36 "HgN/A
12:00 PM55 °FPartly sunny.20 mph51%30.36 "HgN/A
11:30 AM54 °FSprinkles. Partly sunny.18 mph63%30.36 "HgN/A
11:00 AM54 °FScattered clouds.20 mph67%30.36 "HgN/A
10:30 AM52 °FScattered clouds.18 mph67%30.33 "HgN/A
10:00 AM52 °FScattered clouds.17 mph72%30.33 "HgN/A
9:00 AM48 °FScattered clouds.16 mph82%30.30 "HgN/A
8:30 AM46 °FSprinkles. Partly sunny.13 mph87%30.30 "Hg5 mi
8:00 AM48 °FScattered showers. Partly sunny.18 mph82%30.27 "Hg6 mi
7:30 AM46 °FScattered showers. Broken clouds.10 mph87%30.24 "HgN/A
7:00 AM46 °FScattered showers. Broken clouds.13 mph87%30.24 "HgN/A
6:30 AM46 °FScattered showers. Partly sunny.16 mph87%30.21 "HgN/A
6:00 AM46 °FBroken clouds.14 mph82%30.18 "HgN/A
5:30 AM46 °FPassing clouds.15 mph87%30.18 "HgN/A
5:00 AM46 °FPassing clouds.13 mph82%30.15 "HgN/A
4:30 AM46 °FPassing clouds.14 mph82%30.12 "HgN/A
4:00 AM46 °FClear.13 mph87%30.12 "Hg10 mi
3:30 AM46 °FClear.14 mph87%30.12 "Hg10 mi
3:00 AM48 °FClear.12 mph82%30.12 "Hg10 mi
2:30 AM48 °FClear.13 mph87%30.09 "Hg10 mi
2:00 AM48 °FClear.14 mph87%30.09 "Hg10 mi
1:30 AM48 °FClear.12 mph87%30.09 "Hg10 mi
1:00 AM50 °FClear.10 mph88%30.09 "Hg10 mi
12:00 AM50 °FClear.13 mph88%30.07 "Hg10 mi
11:30 PM
Sat, Apr 18
50 °FClear.8 mph94%30.07 "Hg10 mi
11:00 PM50 °FPassing clouds.6 mph94%30.07 "HgN/A
Weather by CustomWeather, © 2015

See weather overviewHow to use our weather pages